This demonstration page uses our WeatherBlox Daily Observations layout. Learn more.

Left ArrowRight Arrow

40.92945, -100.16068

Hourly Observations for June 21, 2016

Temp ( °F °C ) Dew Point ( °F °C ) Humidity (%) Winds ( mph kmh ) Pressure ( in mb ) Visibility ( mi km ) Precip ( " mm )
12:15 am 00:15 Clear 66 18.7 57 13.7 73 73 ENE 6 9 30.12 1020 10 16 N/A
12:35 am 00:35 Clear 65 18.5 57 13.8 74 74 ENE 6 9 30.12 1020 10 16 N/A
12:55 am 00:55 Clear 65 18.1 57 13.8 76 76 ENE 6 9 30.15 1021 10 16 N/A
1:15 am 01:15 Clear 65 18.1 57 13.8 76 76 ENE 6 9 30.15 1021 10 16 N/A
1:35 am 01:35 Clear 64 18 57 13.7 76 76 NE 6 9 30.15 1021 10 16 N/A
1:55 am 01:55 Clear 64 17.9 57 13.8 77 77 ENE 6 9 30.15 1021 10 16 N/A
2:15 am 02:15 Clear 64 17.7 57 13.9 79 79 ENE 6 9 30.12 1020 10 16 N/A
2:35 am 02:35 Clear 64 17.7 57 14 79 79 NE 6 9 30.12 1020 10 16 N/A
2:55 am 02:55 Clear 64 17.5 57 14 80 80 NE 5 7 30.12 1020 10 16 N/A
3:15 am 03:15 Clear 63 17.3 57 13.9 81 81 NE 5 7 30.09 1019 10 16 N/A
3:35 am 03:35 Clear 63 17.3 57 14 81 81 ENE 5 7 30.09 1019 10 16 N/A
3:55 am 03:55 Clear 63 17 57 14 83 83 ENE 5 7 30.09 1019 10 16 N/A
4:15 am 04:15 Clear 63 17 57 13.7 81 81 E 6 9 30.06 1018 10 16 N/A
4:35 am 04:35 Clear 63 17 56 13.6 81 81 E 6 9 30.06 1018 10 16 N/A
4:55 am 04:55 Clear 62 16.8 56 13.6 82 82 ENE 5 7 30.06 1018 10 16 N/A
5:15 am 05:15 Clear 62 16.6 56 13.5 82 82 E 5 7 30.06 1018 10 16 N/A
5:35 am 05:35 Clear 62 16.9 56 13.3 79 79 E 5 7 30.06 1018 10 16 N/A
5:55 am 05:55 Clear 62 16.7 56 13.5 82 82 E 5 7 30.03 1017 10 16 N/A
6:15 am 06:15 Sunny 62 16.6 56 13.5 82 82 E 5 7 30.03 1017 10 16 N/A
6:35 am 06:35 Sunny 63 17 57 13.7 81 81 E 5 7 30.03 1017 10 16 N/A
6:55 am 06:55 Sunny 64 17.6 57 13.9 79 79 E 8 13 30.00 1016 10 16 N/A
7:15 am 07:15 Sunny 65 18.1 57 14 77 77 ESE 8 13 30.00 1016 10 16 N/A
7:35 am 07:35 Sunny 65 18.6 58 14.3 76 76 ESE 8 13 30.00 1016 10 16 N/A
7:55 am 07:55 Sunny 66 19.1 58 14.6 75 75 ESE 10 17 30.00 1016 10 16 N/A
8:15 am 08:15 Sunny 67 19.7 58 14.7 73 73 ESE 10 17 29.97 1015 10 16 N/A
8:35 am 08:35 Sunny 69 20.4 59 15.1 72 72 ESE 9 15 29.94 1014 10 16 N/A
8:55 am 08:55 Sunny 70 21.1 60 15.4 70 70 ESE 12 19 29.94 1014 10 16 N/A
9:15 am 09:15 Sunny 71 21.6 61 16 71 71 ESE 10 17 29.94 1014 10 16 N/A
9:35 am 09:35 Sunny 72 22 61 16.2 70 70 ESE 8 13 29.94 1014 10 16 N/A
9:55 am 09:55 Sunny 73 22.7 62 16.5 68 68 SE 9 15 29.94 1014 10 16 N/A
10:15 am 10:15 Sunny 74 23.2 62 16.8 67 67 ESE 7 11 29.94 1014 10 16 N/A
10:35 am 10:35 Sunny 75 24 63 17.2 66 66 SE 8 13 29.91 1013 10 16 N/A
10:55 am 10:55 Sunny 76 24.6 64 17.8 66 66 SE 8 13 29.91 1013 10 16 N/A
11:15 am 11:15 Sunny 77 25.1 65 18.3 66 66 SE 7 11 29.91 1013 10 16 N/A
11:35 am 11:35 Sunny 78 25.6 65 18.4 65 65 SE 5 7 29.91 1013 10 16 N/A
11:55 am 11:55 Sunny 80 26.5 66 18.8 63 63 SE 6 9 29.91 1013 10 16 N/A
12:15 pm 12:15 Sunny 81 27.2 66 19.1 61 61 SSE 5 7 29.91 1013 10 16 N/A
12:35 pm 12:35 Sunny 82 28 66 19.1 58 58 SE 3 6 29.85 1011 10 16 N/A
12:55 pm 12:55 Sunny 83 28.1 67 19.3 59 59 SE 9 15 29.85 1011 10 16 N/A
1:15 pm 13:15 Sunny 84 29.1 67 19.4 56 56 SSE 8 13 29.85 1011 10 16 N/A
1:35 pm 13:35 Sunny 86 29.9 68 19.9 55 55 SE 10 17 29.83 1010 10 16 N/A
1:55 pm 13:55 Sunny 87 30.4 68 19.9 53 53 SSE 10 17 29.80 1009 10 16 N/A
2:15 pm 14:15 Sunny 87 30.8 67 19.6 51 51 SSE 13 20 29.80 1009 10 16 N/A
2:35 pm 14:35 Sunny 89 31.5 69 20.3 51 51 SSE 13 20 29.77 1008 10 16 N/A
2:55 pm 14:55 Sunny 90 32.3 69 20.7 50 50 SSE 12 19 29.77 1008 10 16 N/A
3:15 pm 15:15 Sunny 91 32.8 69 20.5 48 48 SE 10 17 29.77 1008 10 16 N/A
3:35 pm 15:35 Sunny 92 33.6 69 20.3 46 46 S 15 24 29.71 1006 10 16 N/A
3:55 pm 15:55 Sunny 94 34.5 66 19.1 40 40 S 13 20 29.71 1006 10 16 N/A
4:15 pm 16:15 Sunny 95 35 65 18.4 37 37 S 12 19 29.71 1006 10 16 N/A
4:35 pm 16:35 Sunny 96 35.6 63 17.3 34 34 S 12 19 29.68 1005 10 16 N/A
4:55 pm 16:55 Sunny 96 35.8 64 17.9 35 35 S 12 19 29.68 1005 10 16 N/A
5:15 pm 17:15 Sunny 97 36 63 17.1 33 33 S 12 19 29.65 1004 10 16 N/A
5:35 pm 17:35 Sunny 97 36 63 17.2 33 33 S 12 19 29.65 1004 10 16 N/A
5:55 pm 17:55 Sunny 96 35.8 63 17.3 33 33 S 15 24 29.62 1003 10 16 N/A
6:15 pm 18:15 Sunny 96 35.5 64 17.5 34 34 S 13 20 29.62 1003 10 16 N/A
6:35 pm 18:35 Sunny 96 35.3 64 17.7 35 35 S 12 19 29.59 1002 10 16 N/A
6:55 pm 18:55 Sunny 95 35 64 18 36 36 S 9 15 29.59 1002 10 16 N/A
7:15 pm 19:15 Sunny 93 34.1 67 19.4 42 42 SSE 9 15 29.59 1002 10 16 N/A
7:35 pm 19:35 Sunny 92 33.3 66 18.9 43 43 SSE 10 17 29.59 1002 10 16 N/A
7:55 pm 19:55 Sunny 91 32.5 67 19.2 45 45 SSE 10 17 29.56 1001 10 16 N/A
8:15 pm 20:15 Sunny 89 31.5 65 18.1 45 45 SSE 10 17 29.59 1002 10 16 N/A
8:35 pm 20:35 Sunny 88 30.9 62 16.8 43 43 S 13 20 29.59 1002 10 16 N/A
8:55 pm 20:55 Sunny 87 30.6 61 15.9 41 41 S 14 22 29.59 1002 10 16 N/A
9:15 pm 21:15 Clear 87 30.5 59 14.8 38 38 S 16 26 29.59 1002 10 16 N/A
9:35 pm 21:35 Clear 87 30.5 58 14.2 37 37 S 20 31 29.59 1002 10 16 N/A
9:55 pm 21:55 Clear 87 30.4 56 13.6 36 36 S 20 31 29.59 1002 10 16 N/A
10:15 pm 22:15 Clear 86 29.9 57 13.7 37 37 S 16 26 29.59 1002 10 16 N/A
10:35 pm 22:35 Clear 85 29.6 57 13.7 38 38 S 18 30 29.59 1002 10 16 N/A
10:55 pm 22:55 Clear 84 29.1 57 13.9 39 39 S 18 30 29.59 1002 10 16 N/A
11:15 pm 23:15 Clear 83 28.6 57 14 41 41 S 17 28 29.59 1002 10 16 N/A
11:35 pm 23:35 Clear 83 28.1 58 14.2 43 43 SSW 15 24 29.59 1002 10 16 N/A
11:55 pm 23:55 Clear 82 27.7 58 14.2 44 44 S 18 30 29.62 1003 10 16 N/A

Powered by AerisWeather